Regional Weather Roundup
Issued by NWS Midland/Odessa, TX

Skip options and go directly to product.
Home | Oldest Version | Previous Version | Current Version | All | Text Only | Save Text | Print | Product List | Glossary Off

Skip product version selection by date and time.   

728
ASUS44 KMAF 202010
RWRMAF
MIDLAND AREA WEATHER ROUNDUP
NATIONAL WEATHER SERVICE MIDLAND TX
200 PM CST MON FEB 20 2017

...IN SOUTHWEST TEXAS AND SOUTHEAST NEW MEXICO...

CITY           SKY/WX    TMP DP  RH WIND       PRES   REMARKS
ALPINE         MOSUNNY   64  28  25 NW18G25   30.18R
ANDREWS        FAIR      68  28  22 N28G33    30.01F
ARTESIA        SUNNY     68  28  22 N17G23    30.08F
BIG SPRING     SUNNY     68  34  28 W24G32    29.97F
CARLSBAD       SUNNY     68  27  21 W8        30.07F
DRYDEN           N/A     72  31  22 NW10      30.01F
FORT STOCKTON  MOSUNNY   69  29  22 NW18G32   30.05F
GUAD PASS      SUNNY     59  31  34 W24G31    30.17F
HOBBS          SUNNY     66  18  15 N20G31    30.04F
MARFA          SUNNY     61  28  28 NW31G38   30.16S
MIDLAND AIRPK  SUNNY     70  33  25 NW22G30   29.99F
MIDLAND INTL   SUNNY     70  33  25 NW22G33   29.99F
ODESSA         SUNNY     70  31  23 N22G35    30.01F
PECOS          SUNNY     70  28  21 NW16G29   30.06S
PRESIDIO       FAIR      69  32  25 W20G33    30.12S
SEMINOLE       SUNNY     67  22  17 N18G31    30.02F
SNYDER         SUNNY     67  36  31 W16       29.92F
WINK           SUNNY     71  30  21 N14G26    30.02F
$$
...OTHER STATIONS IN TEXAS...

CITY           SKY/WX    TMP DP  RH WIND       PRES   REMARKS
ABILENE        SUNNY     69  37  30 SW12G22   29.89F
AMARILLO       SUNNY     67  10  11 N25G39    29.97F
AUSTIN         CLOUDY    67  58  72 VRB6      29.95F
BROWNSVILLE    CLOUDY    67  64  90 N3        29.97F
CORPUS CHRISTI CLOUDY    66  63  90 E5        30.00S
DALLAS FTW     CLOUDY    64  58  80 S15       29.89F
DEL RIO        SUNNY     74  37  26 NW20G29   29.99F
EL PASO        MOSUNNY   63  29  27 W7        30.17F
HOUSTON INT    RAIN      61  59  93 NE12      29.96F FOG
LUBBOCK        MOSUNNY   69  23  17 N26G36    29.95S
SAN ANGELO     SUNNY     72  36  26 W18G31    29.94F
SAN ANTONIO    PTSUNNY   70  51  51 VRB3      29.97F
WACO           CLOUDY    62  58  86 MISG      29.94F
WICHITA FALLS  NOT AVBL
$$
...OTHER LOCATIONS IN NEW MEXICO...

CITY           SKY/WX    TMP DP  RH WIND       PRES   REMARKS
ALAMAGORDO     SUNNY     61  28  29 NW16G22   30.16F
ALBUQUERQUE    MOSUNNY   56  26  31 N13G23    30.21F
CANNON AFB     SUNNY     64  23  20 NW17      30.04F
CLOVIS         SUNNY     64  27  24 N16G26    30.04F
HOLLOMAN AFB   SUNNY     62  29  29 NW14      30.19F
ROSWELL        SUNNY     70  22  16 NW21G26     N/A
RUIDOSO        SUNNY     52  21  30 NW7G17    30.20F
SANTA FE       SUNNY     54  22  28 N13G20    30.19S
TRUTH OR CONSE SUNNY     59  28  30 NW7       30.20F
TUCUMCARI      SUNNY     67  17  14 NW8       30.02F
$$

  • National Weather Service
  • Southern Region Headquarters
  • 819 Taylor Street, Room 10A06
  • Fort Worth, TX 76102
  • Page Author: NWS Fort Worth
  • Web Master: SR-SRH.Webmaster@noaa.gov
  •  
  • Page last modified: 30-Sep-2016 6:36 PM UTC
USA.gov is the U.S. government's official web portal to all federal, state and local government web resources and services.